CW4438 Weather Reports


Display with metric or nautical units.
time (UTC)temp
F
wind
direction
speed
MPH
gust
MPH
rain 1hr
in
rain 24hr
in
rain mn
in
humidity
%
barometer
mb
20260504050531 67 186 3.0 6.0 0.00 0.00 0.00 56 1012.3
20260504045530 67 186 3.0 6.0 0.00 0.00 0.00 56 1012.4
20260504045031 67 230 3.0 6.0 0.00 0.00 0.00 56 1012.5
20260504044530 67 198 3.0 10.0 0.00 0.00 0.00 56 1012.4
20260504044031 67 223 4.0 11.0 0.00 0.00 0.00 55 1012.4
20260504043530 67 207 3.0 11.0 0.00 0.00 0.00 56 1012.4
20260504043031 67 234 3.0 9.0 0.00 0.00 0.00 56 1012.5
20260504042530 67 220 3.0 9.0 0.00 0.00 0.00 56 1012.5
20260504042031 67 257 3.0 9.0 0.00 0.00 0.00 56 1012.5
20260504041530 67 184 3.0 9.0 0.00 0.00 0.00 55 1012.5
20260504041031 68 242 2.0 6.0 0.00 0.00 0.00 56 1012.4
20260504040530 68 242 2.0 7.0 0.00 0.00 0.00 55 1012.4
20260504040030 68 30 3.0 7.0 0.00 0.00 0.00 55 1012.4
20260504035530 68 29 3.0 9.0 0.00 0.00 0.00 55 1012.4
20260504035031 69 31 3.0 9.0 0.00 0.00 0.00 54 1012.4
20260504034530 69 32 3.0 6.0 0.00 0.00 0.00 53 1012.4
20260504034030 69 28 3.0 7.0 0.00 0.00 0.00 54 1012.5
20260504033531 69 27 3.0 10.0 0.00 0.00 0.00 54 1012.5
20260504033030 69 32 3.0 10.0 0.00 0.00 0.00 53 1012.5
20260504032531 69 32 3.0 8.0 0.00 0.00 0.00 54 1012.6
20260504031531 69 32 3.0 7.0 0.00 0.00 0.00 54 1012.5
20260504031031 69 15 3.0 7.0 0.00 0.00 0.00 54 1012.5
20260504030539 69 20 3.0 7.0 0.00 0.00 0.00 55 1012.6
20260504025538 68 25 3.0 7.0 0.00 0.00 0.00 55 1012.5
20260504024016 69 29 2.0 5.0 0.00 0.00 0.00 57 1012.3
20260504023003 69 28 3.0 5.0 0.00 0.00 0.00 56 1012.3
20260504022503 69 30 2.0 5.0 0.00 0.00 0.00 56 1012.3
20260504022003 69 28 2.0 5.0 0.00 0.00 0.00 55 1012.2
20260504021503 69 28 2.0 5.0 0.00 0.00 0.00 56 1012.2
20260504021003 69 28 2.0 4.0 0.00 0.00 0.00 56 1012.2
20260504020503 69 30 2.0 7.0 0.00 0.00 0.00 55 1012.2
20260504020003 69 26 2.0 7.0 0.00 0.00 0.00 55 1012.2
20260504015011 69 31 1.0 3.0 0.00 0.00 0.00 54 1012.1
20260504014509 70 28 1.0 3.0 0.00 0.00 0.00 52 1012.2
20260504014007 70 28 1.0 3.0 0.00 0.00 0.00 53 1012.1
20260504013504 70 27 1.0 3.0 0.00 0.00 0.00 52 1012.1
20260504013003 71 28 1.0 3.0 0.00 0.00 0.00 52 1012.1
20260504012501 71 28 1.0 5.0 0.00 0.00 0.00 51 1012.1
20260504012002 71 28 1.0 5.0 0.00 0.00 0.00 49 1012.0
20260504011500 71 26 1.0 4.0 0.00 0.00 0.00 50 1012.0
20260504010500 72 26 1.0 4.0 0.00 0.00 0.00 47 1012.0
20260504010002 73 28 1.0 4.0 0.00 0.00 0.00 46 1012.0
20260504005501 73 23 1.0 5.0 0.00 0.00 0.00 45 1012.0
20260504004501 74 109 1.0 3.0 0.00 0.00 0.00 44 1012.1
20260504003501 75 100 2.0 7.0 0.00 0.00 0.00 42 1012.1
20260504003001 75 119 2.0 7.0 0.00 0.00 0.00 41 1012.1
20260504002501 75 166 2.0 10.0 0.00 0.00 0.00 40 1012.1
20260504002000 76 119 3.0 10.0 0.00 0.00 0.00 39 1012.3
20260504001449 76 142 3.0 8.0 0.00 0.00 0.00 39 1012.3
20260504000948 76 158 3.0 7.0 0.00 0.00 0.00 38 1012.4
20260504000441 76 209 3.0 8.0 0.00 0.00 0.00 41 1012.4
20260503235940 76 153 3.0 8.0 0.00 0.00 0.00 38 1012.4
20260503235439 76 149 2.0 8.0 0.00 0.00 0.00 37 1012.4
20260503234937 77 250 3.0 8.0 0.00 0.00 0.00 39 1012.4
20260503233937 77 156 3.0 8.0 0.00 0.00 0.00 37 1012.4
20260503233435 77 215 4.0 8.0 0.00 0.00 0.00 38 1012.4
20260503231933 77 123 3.0 10.0 0.00 0.00 0.00 37 1012.5
20260503231433 77 140 3.0 9.0 0.00 0.00 0.00 39 1012.5
20260503230934 77 68 4.0 8.0 0.00 0.00 0.00 36 1012.6
20260503230430 77 225 4.0 8.0 0.00 0.00 0.00 36 1012.6
20260503225930 78 169 4.0 11.0 0.00 0.00 0.00 36 1012.6
20260503225430 78 238 3.0 11.0 0.00 0.00 0.00 36 1012.6
20260503224929 78 167 2.0 5.0 0.00 0.00 0.00 40 1012.8
20260503224429 78 237 3.0 8.0 0.00 0.00 0.00 38 1012.7
20260503223929 78 225 4.0 10.0 0.00 0.00 0.00 37 1012.8
20260503223430 78 219 4.0 10.0 0.00 0.00 0.00 38 1012.7
20260503222429 79 221 3.0 7.0 0.00 0.00 0.00 41 1012.8
20260503221930 79 200 3.0 7.0 0.00 0.00 0.00 42 1012.8
20260503221430 80 256 3.0 7.0 0.00 0.00 0.00 43 1012.9
20260503220931 80 179 3.0 7.0 0.00 0.00 0.00 41 1013.0
20260503220430 80 252 3.0 7.0 0.00 0.00 0.00 40 1013.0
20260503215930 80 255 4.0 12.0 0.00 0.00 0.00 41 1013.1
20260503215430 80 192 4.0 12.0 0.00 0.00 0.00 41 1013.2
20260503214430 81 198 3.0 10.0 0.00 0.00 0.00 40 1013.3
20260503213930 81 191 3.0 10.0 0.00 0.00 0.00 41 1013.3
20260503213430 80 231 2.0 5.0 0.00 0.00 0.00 42 1013.4
20260503212931 80 285 3.0 7.0 0.00 0.00 0.00 40 1013.5
20260503212429 80 339 3.0 7.0 0.00 0.00 0.00 41 1013.6
20260503211929 80 196 3.0 13.0 0.00 0.00 0.00 40 1013.6
20260503211430 80 194 3.0 13.0 0.00 0.00 0.00 43 1013.8
20260503210929 80 220 3.0 9.0 0.00 0.00 0.00 40 1013.9
20260503210429 80 288 3.0 8.0 0.00 0.00 0.00 40 1014.0
20260503205929 80 113 3.0 9.0 0.00 0.00 0.00 42 1014.1
20260503205429 80 91 4.0 13.0 0.00 0.00 0.00 45 1014.2
20260503204928 80 233 4.0 13.0 0.00 0.00 0.00 39 1014.3
20260503204429 80 195 4.0 9.0 0.00 0.00 0.00 43 1014.3
20260503203928 80 176 3.0 8.0 0.00 0.00 0.00 44 1014.4
20260503203429 80 192 4.0 8.0 0.00 0.00 0.00 44 1014.7
20260503202930 79 329 4.0 10.0 0.00 0.00 0.00 43 1014.8
20260503202429 79 132 4.0 10.0 0.00 0.00 0.00 40 1014.7
20260503201929 80 211 4.0 10.0 0.00 0.00 0.00 40 1014.8
20260503201429 80 246 4.0 10.0 0.00 0.00 0.00 44 1014.9
20260503200930 79 139 4.0 10.0 0.00 0.00 0.00 45 1015.0
20260503200430 79 209 3.0 8.0 0.00 0.00 0.00 44 1015.1
20260503195431 79 202 3.0 9.0 0.00 0.00 0.00 44 1015.2
20260503194931 79 136 3.0 9.0 0.00 0.00 0.00 45 1015.2
20260503194430 79 144 4.0 9.0 0.00 0.00 0.00 49 1015.2
20260503193930 78 161 4.0 11.0 0.00 0.00 0.00 42 1015.4
20260503193431 78 164 4.0 11.0 0.00 0.00 0.00 41 1015.5
20260503192929 79 111 3.0 10.0 0.00 0.00 0.00 44 1015.5
20260503192430 78 187 3.0 8.0 0.00 0.00 0.00 45 1015.6
20260503191929 78 134 3.0 8.0 0.00 0.00 0.00 47 1015.7
20260503190928 78 119 4.0 8.0 0.00 0.00 0.00 47 1015.8
20260503190430 78 154 4.0 8.0 0.00 0.00 0.00 49 1015.9
20260503185430 78 148 3.0 10.0 0.00 0.00 0.00 43 1015.9
20260503184429 78 194 3.0 11.0 0.00 0.00 0.00 43 1015.9
20260503183429 78 140 3.0 7.0 0.00 0.00 0.00 45 1016.0
20260503181929 76 219 4.0 9.0 0.00 0.00 0.00 46 1016.3
20260503181430 76 166 3.0 9.0 0.00 0.00 0.00 46 1016.5
20260503180430 76 192 3.0 8.0 0.00 0.00 0.00 45 1016.7
20260503175929 76 141 3.0 8.0 0.00 0.00 0.00 49 1016.7
20260503175430 76 154 4.0 9.0 0.00 0.00 0.00 47 1016.9
20260503174929 76 132 4.0 9.0 0.00 0.00 0.00 45 1016.9
20260503173929 75 99 4.0 8.0 0.00 0.00 0.00 46 1017.0
20260503173429 75 146 3.0 8.0 0.00 0.00 0.00 46 1017.0
20260503172929 75 154 4.0 9.0 0.00 0.00 0.00 49 1017.1
20260503172429 75 154 4.0 9.0 0.00 0.00 0.00 49 1017.0
20260503171928 75 9 4.0 9.0 0.00 0.00 0.00 47 1017.0
20260503171429 74 150 4.0 11.0 0.00 0.00 0.00 49 1017.0
20260503170929 74 159 4.0 11.0 0.00 0.00 0.00 45 1017.0
20260503170430 74 158 4.0 11.0 0.00 0.00 0.00 45 1017.0
20260503150907 66 21 3.0 7.0 0.00 0.00 0.00 51 1018.6
20260503150408 66 19 3.0 7.0 0.00 0.00 0.00 52 1018.7
20260503131341 49 126 2.0 5.0 0.00 0.00 0.00 78 1019.2
20260503130840 47 193 1.0 3.0 0.00 0.00 0.00 83 1019.3
20260503130339 46 269 1.0 4.0 0.00 0.00 0.00 86 1019.2
20260503110321 40 90 1.0 2.0 0.00 0.00 0.00 91 1018.6
20260503090248 41 89 1.0 2.0 0.00 0.00 0.00 91 1019.0
20260503081229 41 89 0.0 1.0 0.00 0.00 0.00 92 1019.3
20260503080729 41 89 0.0 1.0 0.00 0.00 0.00 91 1019.4
20260503080230 41 89 0.0 1.0 0.00 0.00 0.00 91 1019.3
20260503072229 41 89 0.0 1.0 0.00 0.00 0.00 90 1019.7
20260503071729 41 89 0.0 1.0 0.00 0.00 0.00 90 1019.7
20260503071229 41 89 0.0 1.0 0.00 0.00 0.00 89 1019.8
20260503070729 41 89 0.0 0.0 0.00 0.00 0.00 89 1019.8
20260503070229 41 90 0.0 1.0 0.00 0.00 0.00 89 1019.9